Regional Weather Roundup
Issued by NWS

Home | Current Version | Previous Version | Graphics & Text | Print | Product List | Glossary On
Versions: 1 2 3 4 5 6 7 8 9 10 11 12 13 14 15 16 17 18 19 20 21 22 23 24 25 26 27 28 29 30 31 32 33 34 35 36 37 38 39 40 41 42 43 44 45 46 47 48 49 50
000
ASUS45 KCYS 291410
RWRWY

WYOMING REGIONAL WEATHER ROUNDUP
NATIONAL WEATHER SERVICE CHEYENNE WY
800 AM MDT FRI MAY 29 2015

NOTE:  "FAIR" INDICATES FEW OR NO CLOUDS BELOW 12,000 FEET
WITH NO SIGNIFICANT WEATHER AND/OR OBSTRUCTIONS TO VISIBILITY.

WYZ001-291500-
YELLOWSTONE NATIONAL PARK

CITY           SKY/WX    TMP DP  RH WIND       PRES   REMARKS
LK YELLOWSTONE   N/A     39  36  89 CALM      30.35S
W YELLOWSTONE  NOT AVBL

$$
WYZ002>013-054>058-071-098>099-291500-
NORTHERN WYOMING

CITY           SKY/WX    TMP DP  RH WIND       PRES   REMARKS
JACKSON        CLOUDY    41  41 100 CALM      30.31R
CODY           CLOUDY    46  45  93 NW5       30.30R
GREYBULL       PTSUNNY   51  46  83 NW12      30.24R
WORLAND        CLOUDY    51  48  89 N7        30.25R
SHERIDAN       CLOUDY    46  45  96 N8        30.31R FOG
BUFFALO        LGT RAIN  45  44  97 N22       30.29R VSB<1/4
GILLETTE       LGT RAIN  45  44  97 N15       30.25R
HULETT         LGT RAIN  43  41  93 N10       30.25S VSB<1/4
NEWCASTLE      LGT RAIN  48  45  87 N13G20    30.19R

$$
WYZ014>020-022>026-101>103-291500-
CENTRAL WYOMING

CITY           SKY/WX    TMP DP  RH WIND       PRES   REMARKS
BIG PINEY      FAIR      42  37  82 CALM      30.32R
PINEDALE       FAIR      43  39  87 CALM      30.33R
DUBOIS         CLOUDY    37  34  87 NW5       30.31R WCI  34
LANDER         CLOUDY    50  44  80 CALM      30.27R
RIVERTON       CLOUDY    50  45  83 N6        30.28R
CASPER         LGT RAIN  46  43  89 N13       30.26R
DOUGLAS        LGT RAIN  50  47  89 NW14      30.22R

$$
WYZ021-027>030-104>119-291500-
SOUTHERN WYOMING

CITY           SKY/WX    TMP DP  RH WIND       PRES   REMARKS
EVANSTON       FAIR      44  37  76 CALM      30.30R
KEMMERER       FAIR      43  37  81 N5        30.31R
FORT BRIDGER   SUNNY     46  43  87 CALM      30.33R
ROCK SPRINGS   CLOUDY    47  41  80 E6        30.31R
DIXON          CLOUDY    46  43  90 W5        30.32R
RAWLINS        LGT RAIN  44  41  89 CALM      30.29R
SARATOGA       CLOUDY    43  37  81 N6        30.31R
LARAMIE        CLOUDY    44  39  82 NW13      30.26R
CHEYENNE       PTSUNNY   51  41  68 N9        30.21R
TORRINGTON     RAIN      53  51  93 NW8       30.15R FOG
PINE BLUFFS    CLOUDY    52  48  87 NW13      30.20R

$$


USA.gov is the U.S. government's official web portal to all federal, state and local government web resources and services.